• In Belgium
  • List of Countries
  • For 7 days
  • Water Temperature
  • Satellite Maps
  • Weather Map
  • Weather Widgets
  • user-avatar
    Login

    Hourly Weather Oran

    Today, 20 October, Friday

    Time Temperature Precipitation Wind Pressure Humidity
    00:00 +20°C° 0 mm 7 mps 752 mmHg 75%
    01:00 +20°C° 0 mm 6 mps 752 mmHg 75%
    02:00 +20°C° 0 mm 5 mps 752 mmHg 76%
    03:00 +20°C° 0 mm 4 mps 752 mmHg 77%
    04:00 +20°C° 0 mm 4 mps 752 mmHg 77%
    05:00 +20°C° 0 mm 4 mps 752 mmHg 78%
    06:00 +19°C° 0 mm 4 mps 752 mmHg 79%
    07:00 +20°C° 0 mm 5 mps 753 mmHg 75%
    08:00 +21°C° 0 mm 5 mps 753 mmHg 70%
    09:00 +22°C° 0 mm 6 mps 754 mmHg 65%
    10:00 +23°C° 0 mm 6 mps 754 mmHg 62%
    11:00 +23°C° 0 mm 6 mps 754 mmHg 58%
    12:00 +24°C° 0 mm 6 mps 755 mmHg 55%
    13:00 +25°C° 0 mm 5 mps 755 mmHg 55%
    14:00 +25°C° 0 mm 5 mps 755 mmHg 56%
    15:00 +25°C° 0 mm 5 mps 754 mmHg 56%
    16:00 +23°C° 0 mm 4 mps 755 mmHg 60%
    17:00 +24°C° 0 mm 3 mps 755 mmHg 65%
    18:00 +22°C° 0 mm 3 mps 755 mmHg 69%
    19:00 +23°C° 0 mm 2 mps 756 mmHg 71%
    20:00 +21°C° 0 mm 2 mps 756 mmHg 72%
    21:00 +21°C° 0 mm 2 mps 756 mmHg 74%
    22:00 +21°C° 0 mm 2 mps 756 mmHg 74%
    23:00 +21°C° 0 mm 1 mps 756 mmHg 73%

    Tomorrow, 21 October, Saturday

    Time Temperature Precipitation Wind Pressure Humidity
    00:00 +21°C° 0 mm 1 mps 756 mmHg 73%
    01:00 +21°C° 0 mm 1 mps 756 mmHg 72%
    02:00 +21°C° 0 mm 1 mps 756 mmHg 72%
    03:00 +20°C° 0 mm 1 mps 756 mmHg 71%
    04:00 +20°C° 0 mm 1 mps 756 mmHg 70%
    05:00 +20°C° 0 mm 1 mps 756 mmHg 68%
    06:00 +20°C° 0 mm 1 mps 756 mmHg 67%
    07:00 +22°C° 0 mm 1 mps 757 mmHg 59%
    08:00 +23°C° 0 mm 1 mps 757 mmHg 50%
    09:00 +25°C° 0 mm 1 mps 757 mmHg 42%
    10:00 +26°C° 0 mm 1 mps 757 mmHg 39%
    11:00 +27°C° 0 mm 1 mps 757 mmHg 36%
    12:00 +26°C° 0 mm 0 mps 757 mmHg 33%
    13:00 +28°C° 0 mm 1 mps 756 mmHg 33%
    14:00 +28°C° 0 mm 2 mps 756 mmHg 32%
    15:00 +29°C° 0 mm 2 mps 756 mmHg 32%
    16:00 +28°C° 0 mm 2 mps 756 mmHg 36%
    17:00 +27°C° 0 mm 2 mps 756 mmHg 40%
    18:00 +26°C° 0 mm 2 mps 756 mmHg 44%
    19:00 +25°C° 0 mm 1 mps 756 mmHg 47%
    20:00 +25°C° 0 mm 1 mps 756 mmHg 49%
    21:00 +24°C° 0 mm 1 mps 757 mmHg 52%
    22:00 +24°C° 0 mm 1 mps 757 mmHg 53%
    23:00 +21°C° 0 mm 0 mps 757 mmHg 54%

    Day after tomorrow, 22 October, Sunday

    Time Temperature Precipitation Wind Pressure Humidity
    00:00 +21°C° 0 mm 0 mps 756 mmHg 56%
    01:00 +20°C° 0 mm 0 mps 756 mmHg 57%
    02:00 +22°C° 0 mm 1 mps 756 mmHg 58%
    03:00 +22°C° 0 mm 1 mps 756 mmHg 59%
    04:00 +19°C° 0 mm 0 mps 756 mmHg 60%
    05:00 +19°C° 0 mm 0 mps 756 mmHg 62%
    06:00 +19°C° 0 mm 0 mps 756 mmHg 63%
    07:00 +20°C° 0 mm 0 mps 757 mmHg 57%
    08:00 +22°C° 0 mm 0 mps 757 mmHg 51%
    09:00 +23°C° 0 mm 0 mps 757 mmHg 45%
    10:00 +26°C° 0 mm 1 mps 757 mmHg 42%
    11:00 +27°C° 0 mm 1 mps 757 mmHg 40%
    12:00 +28°C° 0 mm 2 mps 757 mmHg 37%
    13:00 +28°C° 0 mm 3 mps 757 mmHg 37%
    14:00 +28°C° 0 mm 3 mps 756 mmHg 38%
    15:00 +28°C° 0 mm 3 mps 756 mmHg 38%
    16:00 +27°C° 0 mm 3 mps 756 mmHg 43%
    17:00 +26°C° 0 mm 3 mps 756 mmHg 48%
    18:00 +25°C° 0 mm 3 mps 756 mmHg 52%
    19:00 +24°C° 0 mm 3 mps 757 mmHg 55%
    20:00 +24°C° 0 mm 2 mps 757 mmHg 57%
    21:00 +24°C° 0 mm 2 mps 757 mmHg 60%
    22:00 +23°C° 0 mm 2 mps 757 mmHg 61%
    23:00 +23°C° 0 mm 2 mps 757 mmHg 62%

    23 October, Monday

    Time Temperature Precipitation Wind Pressure Humidity
    00:00 +22°C° 0 mm 1 mps 757 mmHg 64%
    01:00 +21°C° 0 mm 2 mps 757 mmHg 65%
    02:00 +21°C° 0 mm 2 mps 757 mmHg 66%
    03:00 +20°C° 0 mm 2 mps 756 mmHg 67%
    04:00 +20°C° 0 mm 2 mps 756 mmHg 69%
    05:00 +20°C° 0 mm 2 mps 756 mmHg 70%
    06:00 +20°C° 0 mm 3 mps 756 mmHg 71%
    07:00 +21°C° 0 mm 3 mps 757 mmHg 65%
    08:00 +22°C° 0 mm 3 mps 757 mmHg 59%
    09:00 +24°C° 0 mm 3 mps 758 mmHg 53%
    10:00 +25°C° 0 mm 4 mps 758 mmHg 49%
    11:00 +26°C° 0 mm 4 mps 757 mmHg 46%
    12:00 +27°C° 0 mm 4 mps 757 mmHg 42%
    13:00 +27°C° 0 mm 4 mps 757 mmHg 41%
    14:00 +28°C° 0 mm 5 mps 757 mmHg 40%
    15:00 +28°C° 0 mm 5 mps 756 mmHg 40%
    16:00 +27°C° 0 mm 5 mps 756 mmHg 45%
    17:00 +26°C° 0 mm 5 mps 756 mmHg 49%
    18:00 +25°C° 0 mm 5 mps 756 mmHg 54%
    19:00 +23°C° 0 mm 5 mps 757 mmHg 59%
    20:00 +23°C° 0 mm 5 mps 757 mmHg 63%
    21:00 +22°C° 0 mm 4 mps 757 mmHg 67%
    22:00 +22°C° 0 mm 4 mps 757 mmHg 68%
    23:00 +21°C° 0 mm 4 mps 757 mmHg 70%

    24 October, Tuesday

    Time Temperature Precipitation Wind Pressure Humidity
    00:00 +21°C° 0 mm 3 mps 757 mmHg 72%
    01:00 +21°C° 0 mm 3 mps 757 mmHg 71%
    02:00 +20°C° 0 mm 3 mps 757 mmHg 71%
    03:00 +20°C° 0 mm 3 mps 756 mmHg 71%
    04:00 +20°C° 0 mm 3 mps 756 mmHg 71%
    05:00 +20°C° 0 mm 3 mps 756 mmHg 70%
    06:00 +19°C° 0 mm 3 mps 756 mmHg 70%
    07:00 +21°C° 0 mm 3 mps 756 mmHg 63%
    08:00 +22°C° 0 mm 3 mps 756 mmHg 55%
    09:00 +25°C° 0 mm 3 mps 757 mmHg 47%
    10:00 +26°C° 0 mm 3 mps 756 mmHg 43%
    11:00 +27°C° 0 mm 3 mps 756 mmHg 38%
    12:00 +28°C° 0 mm 3 mps 756 mmHg 33%
    13:00 +29°C° 0 mm 4 mps 755 mmHg 33%
    14:00 +29°C° 0 mm 4 mps 755 mmHg 33%
    15:00 +29°C° 0 mm 5 mps 754 mmHg 33%
    16:00 +28°C° 0 mm 4 mps 754 mmHg 38%
    17:00 +27°C° 0 mm 4 mps 755 mmHg 44%
    18:00 +26°C° 0 mm 4 mps 755 mmHg 50%
    19:00 +25°C° 0 mm 3 mps 755 mmHg 53%
    20:00 +24°C° 0 mm 3 mps 755 mmHg 56%
    21:00 +24°C° 0 mm 2 mps 755 mmHg 59%
    22:00 +23°C° 0 mm 2 mps 755 mmHg 60%
    23:00 +23°C° 0 mm 2 mps 755 mmHg 60%

    25 October, Wednesday

    Time Temperature Precipitation Wind Pressure Humidity
    00:00 +21°C° 0 mm 2 mps 755 mmHg 60%
    01:00 +21°C° 0 mm 2 mps 755 mmHg 61%
    02:00 +21°C° 0 mm 2 mps 755 mmHg 62%
    03:00 +20°C° 0 mm 2 mps 754 mmHg 63%
    04:00 +20°C° 0 mm 2 mps 754 mmHg 63%
    05:00 +20°C° 0 mm 2 mps 754 mmHg 63%
    06:00 +19°C° 0 mm 2 mps 755 mmHg 63%
    07:00 +21°C° 0 mm 2 mps 755 mmHg 56%
    08:00 +24°C° 0 mm 2 mps 755 mmHg 49%
    09:00 +26°C° 0 mm 2 mps 756 mmHg 42%
    10:00 +27°C° 0 mm 2 mps 755 mmHg 38%
    11:00 +28°C° 0 mm 3 mps 755 mmHg 35%
    12:00 +29°C° 0 mm 3 mps 755 mmHg 32%
    13:00 +29°C° 0 mm 3 mps 755 mmHg 32%
    14:00 +29°C° 0 mm 4 mps 754 mmHg 33%
    15:00 +29°C° 0 mm 4 mps 754 mmHg 33%
    16:00 +28°C° 0 mm 4 mps 754 mmHg 38%
    17:00 +27°C° 0 mm 4 mps 755 mmHg 44%
    18:00 +26°C° 0 mm 4 mps 755 mmHg 49%
    19:00 +25°C° 0 mm 3 mps 755 mmHg 52%
    20:00 +25°C° 0 mm 3 mps 755 mmHg 54%
    21:00 +24°C° 0 mm 3 mps 755 mmHg 57%
    22:00 +24°C° 0 mm 3 mps 755 mmHg 58%
    23:00 +23°C° 0 mm 2 mps 755 mmHg 59%
    Show more